Kalaeloa, HI

2:11 PM HST on July 24, 2017 (GMT -1000)
Kalaeloa (John Rodgers Field)

Weather History for PHJR - March, 2013

Change the Weather History Date:

Sunday, March 24, 2013

  Actual Average (PHHI) Record (PHHI)
Temperature  
Mean Temperature 68 °F -  
Max Temperature 71 °F 74 °F 80 °F (2005)
Min Temperature 64 °F 61 °F 57 °F (2005)
Cooling Degree Days 2    
Growing Degree Days 18 (Base 50)    
Moisture  
Dew Point 65 °F    
Average Humidity 87    
Maximum Humidity 100    
Minimum Humidity 73    
Precipitation  
Precipitation 0.35 in - - ()
Sea Level Pressure  
Sea Level Pressure 30.02 in    
Wind  
Wind Speed 3 mph (NE)    
Max Wind Speed 7 mph    
Max Gust Speed -    
Visibility 9 miles    
Events Rain    
Averages and records for this station are not official NWS values.
T = Trace of Precipitation, MM = Missing Value Source: NWS Daily Summary

Daily Weather History Graph

Daily Weather History Graph

Search for Another Location

Airport or City:

Trip Planner

Search our weather history database for the weather conditions in past years. The results will help you decide how hot, cold, wet, or windy it might be!

Date:

Astronomy

Mar. 24, 2013 Rise Set
Actual Time 6:32 AM HST 6:44 PM HST
Civil Twilight 6:10 AM HST 7:06 PM HST
Nautical Twilight 5:44 AM HST 7:32 PM HST
Astronomical Twilight 5:18 AM HST 7:58 PM HST
Moon 4:38 PM HST (3/24) 4:32 AM HST (3/24)
Length of Visible Light 12h 56m
Length of Day
12h 12m
Waxing Gibbous, 93% of the Moon is Illuminated
Mar 24
Waxing Gibbous
Mar 26
Full
Apr 2
Last Quarter
Apr 9
New
Apr 18
First Quarter

Hourly Weather History & Observations

Time (HST) Temp. Dew Point Humidity Pressure Visibility Wind Dir Wind Speed Gust Speed Precip Events Conditions
12:30 AM 69.8 °F 62.6 °F 78% 30.01 in 10.0 mi Variable 3.5 mph - N/A   Mostly Cloudy
12:53 AM 70.0 °F 62.1 °F 76% 30.03 in 10.0 mi Calm Calm - N/A   Mostly Cloudy
1:53 AM 71.1 °F 62.1 °F 73% 30.02 in 10.0 mi Variable 3.5 mph - N/A   Mostly Cloudy
2:53 AM 71.1 °F 62.1 °F 73% 30.00 in 10.0 mi Variable 3.5 mph - N/A   Overcast
3:30 AM 71.6 °F 62.6 °F 73% 29.98 in 10.0 mi ENE 6.9 mph - N/A   Overcast
3:53 AM 71.1 °F 63.0 °F 75% 30.00 in 10.0 mi NE 3.5 mph - N/A   Overcast
4:12 AM 71.6 °F 62.6 °F 73% 29.97 in 10.0 mi Variable 3.5 mph - N/A   Overcast
4:53 AM 70.0 °F 63.0 °F 78% 29.98 in 10.0 mi Variable 5.8 mph - N/A   Overcast
5:53 AM 70.0 °F 63.0 °F 78% 30.00 in 10.0 mi Variable 4.6 mph - N/A   Mostly Cloudy
6:53 AM 71.1 °F 63.0 °F 75% 30.02 in 10.0 mi Variable 4.6 mph - N/A   Overcast
7:53 AM 71.1 °F 63.0 °F 75% 30.05 in 10.0 mi Variable 3.5 mph - N/A   Overcast
8:53 AM 69.1 °F 64.9 °F 87% 30.07 in 7.0 mi Variable 4.6 mph - 0.00 in Rain Light Rain
9:53 AM 68.0 °F 64.9 °F 90% 30.09 in 4.0 mi NNE 4.6 mph - 0.07 in Rain Rain
10:53 AM 68.0 °F 66.0 °F 93% 30.08 in 7.0 mi Variable 4.6 mph - 0.10 in Rain Light Rain
11:53 AM 68.0 °F 66.9 °F 96% 30.08 in 6.0 mi Variable 3.5 mph - 0.04 in Rain Rain
12:53 PM 69.1 °F 68.0 °F 96% 30.04 in 9.0 mi East 5.8 mph - 0.05 in Rain Light Rain
1:53 PM 71.1 °F 68.0 °F 90% 30.01 in 10.0 mi Variable 3.5 mph - 0.02 in Rain Light Rain
2:53 PM 71.1 °F - N/A% 30.00 in - Calm Calm - 0.01 in   Unknown
3:25 PM 69.8 °F 68.0 °F 94% 29.97 in 8.0 mi Calm Calm - 0.01 in Rain Light Rain
3:53 PM 70.0 °F 69.1 °F 97% 29.97 in 10.0 mi Calm Calm - 0.03 in Rain Light Rain
4:02 PM 69.8 °F 68.0 °F 94% 29.95 in 10.0 mi Variable 5.8 mph - 0.00 in Rain Light Rain
4:53 PM 69.1 °F 66.9 °F 93% 29.97 in 10.0 mi Variable 4.6 mph - 0.02 in Rain Light Rain
5:53 PM 70.0 °F 66.9 °F 90% 29.98 in 10.0 mi Calm Calm - 0.00 in   Partly Cloudy
6:16 PM 69.8 °F 66.2 °F 88% 29.98 in 10.0 mi Calm Calm - N/A   Mostly Cloudy
6:53 PM 70.0 °F 68.0 °F 93% 30.01 in 10.0 mi Calm Calm - N/A   Overcast
7:51 PM 68.0 °F 66.2 °F 94% 30.02 in 10.0 mi Calm Calm - 0.01 in   Overcast
7:53 PM 68.0 °F 66.9 °F 96% 30.04 in 10.0 mi NNW 3.5 mph - 0.01 in   Overcast
8:53 PM 68.0 °F 66.9 °F 96% 30.06 in 10.0 mi Calm Calm - N/A   Scattered Clouds
9:53 PM 66.9 °F 64.9 °F 93% 30.06 in 10.0 mi Variable 3.5 mph - N/A   Clear
10:53 PM 66.0 °F 64.0 °F 93% 30.06 in 10.0 mi Calm Calm - N/A   Clear
11:34 PM 64.4 °F 64.4 °F 100% 30.03 in 10.0 mi Variable 4.6 mph - N/A   Partly Cloudy
11:53 PM 64.9 °F 63.0 °F 93% 30.05 in 10.0 mi Calm Calm - N/A   Partly Cloudy